Theta_e
322 321 321 323 321 321 321 321 321 320 319 321 320 319 320 319 318 319 319 332 337 337 338 340 341 343 355 357 356 355 356 354 354 353 352 351 351 351 351 349 348 346 345
323 322 321 322 321 322 322 322 321 320 321 319 320 321 320 318 318 317 317 317 331 333 335 337 338 340 342 354 355 355 354 353 354 353 352 351 351 351 351 351 349 347 345
322 324 322 322 323 324 325 324 323 321 319 319 317 318 318 318 319 318 318 318 319 328 332 334 337 339 342 346 354 355 354 353 352 353 351 351 350 350 351 351 350 349 346
324 323 323 323 324 322 321 319 318 316 315 315 314 316 316 317 317 317 318 318 317 317 322 329 333 337 341 343 352 354 352 351 349 349 349 351 351 350 350 350 350 350 347
320 317 318 316 317 316 315 315 314 313 311 311 312 313 313 315 315 317 316 315 316 317 317 322 330 332 334 336 338 345 351 350 349 349 350 350 350 351 350 349 349 349 347
318 314 314 313 313 311 310 310 308 308 308 309 309 309 309 312 313 313 313 315 316 316 316 316 319 320 330 334 336 338 345 351 348 348 348 348 349 349 350 349 348 347 346
314 311 310 310 309 308 307 307 306 305 305 306 304 304 305 306 307 309 310 310 311 312 312 314 314 315 320 329 331 335 341 348 344 341 341 342 347 349 349 349 348 347 346
312 312 308 307 306 305 304 304 303 302 302 304 302 301 297 302 304 306 307 308 308 310 311 312 314 316 317 319 324 334 338 344 351 348 343 344 345 348 348 349 348 347 346
309 308 308 305 304 303 302 301 302 300 300 302 304 302 299 298 301 305 304 307 306 307 308 309 311 312 313 318 324 327 336 341 349 351 351 347 344 340 341 346 347 347 346
306 307 307 305 303 301 301 303 305 304 303 301 304 305 304 303 298 298 304 304 306 306 306 306 307 310 312 315 329 334 336 339 347 349 346 338 337 336 337 332 338 345 346
303 305 305 306 305 305 305 304 303 303 303 301 301 302 302 302 302 299 296 301 305 306 306 305 306 308 311 318 324 331 336 338 339 341 340 338 337 337 335 334 332 338 345
303 305 306 305 305 304 304 304 304 303 303 302 302 302 301 300 299 299 298 298 299 303 306 307 305 306 311 319 327 330 333 333 332 333 335 335 336 337 333 334 334 337 342
301 302 304 304 304 304 305 304 303 303 303 302 302 302 302 302 302 301 299 298 298 301 303 305 304 306 311 316 324 329 331 331 328 326 327 328 330 333 333 333 334 336 338
302 304 304 304 304 304 304 303 302 302 302 302 301 302 301 301 303 302 300 298 296 298 301 301 305 306 312 315 322 331 326 327 326 323 323 325 327 330 331 332 335 336 337
303 303 303 302 301 302 302 302 301 301 301 301 301 302 301 302 302 302 302 301 298 294 296 302 302 306 308 311 322 327 324 326 324 322 321 322 323 325 327 327 328 330 331
303 302 301 302 302 302 302 302 301 302 301 301 302 301 301 302 302 303 303 302 302 299 296 303 304 306 309 313 324 322 323 324 324 323 323 322 322 322 323 323 325 327 329
301 301 301 302 302 302 302 302 302 302 302 302 302 302 302 303 302 302 303 303 302 302 299 302 306 308 310 314 318 319 319 319 320 321 321 320 319 319 320 320 322 323 324
301 301 302 302 302 302 303 302 302 303 303 303 304 305 304 304 303 303 302 302 302 304 302 300 304 307 309 314 315 314 316 317 316 317 317 316 315 315 315 316 316 318 319
301 301 301 302 302 303 303 303 303 305 304 304 305 305 305 304 302 302 303 303 304 305 305 304 304 309 311 313 312 312 312 312 314 315 314 314 314 314 314 313 313 312 311
301 300 301 302 302 303 303 303 304 305 304 304 305 305 305 307 304 303 304 304 305 305 306 307 308 308 310 314 311 309 307 310 309 312 313 312 312 314 313 313 313 312 309
300 301 301 302 302 301 301 301 304 303 303 304 304 305 306 309 310 310 305 305 305 306 306 307 306 308 310 309 308 309 307 307 308 309 307 308 308 308 310 313 313 311 309
296 299 300 301 301 300 300 301 303 303 303 303 302 303 305 307 307 307 308 309 308 305 305 305 306 308 310 310 309 307 305 304 302 309 307 305 306 307 309 309 310 308 307
293 294 296 301 300 299 299 298 301 303 303 302 302 301 301 303 305 306 306 307 306 306 307 306 304 304 305 307 308 305 305 304 304 307 307 305 308 307 310 311 308 306 306
291 292 297 297 299 299 298 297 298 301 303 303 302 302 300 300 300 304 305 305 305 306 305 306 305 305 306 308 308 307 306 305 306 307 308 302 305 304 308 310 307 306 304
290 292 296 295 293 293 297 297 297 299 301 302 303 302 300 300 298 298 302 304 304 304 306 305 303 302 301 301 305 308 305 304 302 303 307 306 305 306 305 305 306 307 304
290 292 293 292 295 291 295 296 296 299 299 300 301 301 301 298 297 297 301 300 300 302 304 305 305 305 306 306 306 307 306 303 303 302 304 304 306 305 301 302 302 304 304
Wind_Speed
4 3 4 3 4 4 4 5 5 5 5 6 6 6 7 7 6 5 7 17 15 16 20 21 23 23 22 24 27 28 28 28 26 25 25 25 25 24 24 24 23 23 22
5 5 5 5 4 4 5 4 4 5 5 5 7 6 6 7 7 7 4 7 19 21 23 25 26 26 24 23 23 27 26 26 26 26 26 27 26 25 25 25 25 24 23
5 6 4 5 5 5 6 5 5 4 4 5 6 7 7 9 11 13 13 10 10 18 24 24 23 23 24 23 23 23 23 26 26 25 26 26 26 27 27 27 27 26 25
8 5 4 4 5 4 4 4 3 4 4 4 5 8 9 11 14 15 11 10 8 9 14 20 21 21 21 22 22 23 25 25 24 22 24 25 27 29 28 28 28 27 26
9 6 4 4 5 4 4 4 4 4 4 5 7 7 6 8 10 11 13 12 12 12 10 18 24 23 23 23 23 20 23 24 23 21 23 24 28 28 28 29 28 27 28
6 5 5 6 6 4 4 4 4 3 4 6 9 10 9 9 9 9 8 10 5 5 7 11 9 10 20 22 23 24 22 24 17 21 20 21 24 29 29 29 29 29 28
9 6 4 6 6 5 4 5 3 5 5 4 6 8 7 14 11 10 7 4 6 7 8 9 8 8 9 18 20 23 25 25 23 25 25 22 24 30 29 29 29 28 26
9 8 5 4 5 4 5 4 4 6 3 2 5 9 6 6 2 5 9 9 10 7 6 10 10 9 9 8 14 24 25 27 29 27 26 21 27 28 29 28 29 25 25
8 6 4 4 4 3 4 4 5 6 8 5 5 4 5 4 11 6 4 6 5 5 7 7 10 12 12 9 16 19 24 25 27 25 27 23 15 4 12 22 25 22 26
8 7 5 5 5 4 5 6 9 7 8 8 7 7 8 9 6 7 3 9 9 5 8 6 8 11 12 9 18 21 24 21 23 24 14 15 12 4 17 8 17 27 27
7 7 7 12 10 8 9 10 10 10 8 8 8 8 9 8 9 8 10 9 7 8 7 7 9 9 12 10 10 14 20 15 13 17 21 21 20 24 28 15 5 34 25
6 9 9 9 9 9 10 9 11 12 10 10 9 9 9 8 7 6 6 13 11 7 9 7 7 9 8 9 14 21 13 9 11 15 21 26 24 18 17 17 15 18 23
7 8 11 10 9 11 12 11 11 11 11 10 12 9 8 9 8 8 7 10 8 6 6 8 6 7 8 8 8 18 14 10 9 7 8 10 12 10 14 11 14 20 26
8 11 11 11 11 12 12 11 9 9 11 10 14 11 9 9 8 6 5 6 10 6 8 7 7 8 5 7 14 17 6 4 7 6 8 8 6 6 3 2 8 15 19
8 11 11 11 12 12 12 12 9 11 11 11 11 11 10 8 7 7 6 7 7 7 6 5 4 9 9 8 11 9 7 2 5 6 8 4 4 5 4 2 9 14 13
10 11 12 12 12 12 12 12 10 11 11 10 9 11 11 8 7 6 6 7 7 7 6 4 8 9 9 10 5 6 8 8 5 5 10 9 10 8 8 9 5 7 8
10 10 11 12 12 12 12 11 12 12 12 12 11 11 11 10 6 5 6 6 7 5 7 8 5 11 9 4 4 6 6 5 6 11 13 11 11 10 11 12 12 10 16
9 9 10 11 11 11 12 12 12 12 11 11 11 9 8 4 6 6 5 7 7 7 5 11 8 8 6 3 2 5 3 5 6 10 12 13 12 12 12 11 10 12 11
9 9 10 11 11 12 12 12 12 11 11 10 10 9 9 5 5 4 5 5 6 6 7 7 7 4 4 1 1 2 3 5 5 11 11 14 13 12 11 11 12 11 12
9 7 10 10 10 11 11 12 12 12 12 11 10 10 9 8 6 5 5 6 6 6 7 6 4 5 4 2 2 2 0 4 4 4 8 9 9 11 10 11 11 11 10
8 6 7 9 9 9 9 12 11 11 11 12 12 11 9 14 18 3 4 5 6 5 6 6 4 2 2 1 2 2 2 3 3 1 2 3 4 4 4 9 11 12 11
8 8 6 6 8 7 19 19 15 10 12 11 12 12 11 16 15 17 18 13 5 3 5 3 2 4 2 3 2 2 3 2 2 1 2 2 2 2 2 3 8 10 10
7 7 6 6 8 7 18 20 18 7 8 9 10 11 11 9 12 10 12 12 13 13 10 5 4 4 4 4 1 2 2 2 2 2 2 1 1 2 2 3 6 7 7
6 5 5 6 6 6 17 19 19 9 8 8 9 9 9 10 11 9 8 8 8 8 9 6 6 6 5 5 3 1 2 3 3 3 2 2 1 1 2 3 5 6 5
6 6 3 7 7 9 15 19 16 8 7 9 8 8 10 10 15 14 9 7 6 6 5 9 8 8 10 11 6 3 4 2 2 2 2 2 1 2 2 2 2 4 6
5 5 6 7 10 8 15 19 16 5 7 7 8 8 16 12 17 17 11 10 9 7 6 6 5 6 7 7 10 5 3 3 2 2 3 2 1 2 2 2 1 2 3
Wind_Direction
225 232 249 255 259 271 269 279 271 280 290 288 286 271 285 280 280 287 296 293 290 298 301 300 301 303 290 248 233 228 223 212 211 212 213 211 213 213 211 212 214 214 213
230 227 251 256 276 275 292 288 284 289 288 291 293 291 280 268 289 289 275 291 297 300 300 299 294 289 286 277 246 241 230 225 212 213 212 214 212 213 213 214 215 215 212
290 324 328 327 322 327 320 323 321 331 341 328 312 316 305 302 292 292 295 290 292 294 294 289 294 296 292 280 266 245 229 231 222 215 214 216 215 213 214 214 215 215 213
38 27 21 9 338 335 336 328 319 314 298 292 289 296 290 288 287 287 286 289 299 294 287 291 293 293 294 300 285 263 248 234 235 226 225 220 216 215 214 217 216 214 214
21 15 359 322 325 327 336 341 332 331 323 320 311 307 304 292 284 286 284 284 286 285 285 286 291 288 280 274 279 283 267 252 238 230 225 226 224 220 215 215 217 216 217
5 355 358 359 4 3 358 354 337 323 291 296 306 296 282 278 278 271 279 291 313 334 332 324 326 315 299 283 275 266 260 254 226 234 231 230 237 229 221 215 215 215 216
12 15 9 9 1 359 340 334 308 309 312 299 306 306 281 272 274 268 286 304 307 310 308 302 307 300 298 318 302 276 260 251 226 237 224 228 229 233 224 220 214 214 213
18 15 16 359 355 342 334 322 317 310 276 307 291 296 310 308 329 337 306 299 295 301 313 307 305 326 314 307 301 296 272 257 243 240 251 248 240 236 225 222 218 209 211
5 350 341 336 331 318 293 283 284 289 299 291 242 264 307 281 329 269 283 282 301 306 307 321 311 313 302 301 310 298 285 255 247 231 237 242 257 313 350 256 229 215 209
336 330 321 326 311 297 292 295 310 291 294 296 291 255 261 286 296 306 299 302 289 294 318 308 301 299 299 299 322 299 285 257 245 248 204 171 155 35 274 346 332 243 214
315 311 321 326 320 315 309 302 300 293 285 281 278 282 276 269 263 270 290 294 303 295 298 281 295 294 299 294 315 313 315 232 214 183 178 183 186 191 211 190 197 285 232
318 327 320 313 305 306 302 297 291 286 282 276 274 272 271 272 271 277 290 292 295 296 294 293 289 291 290 290 307 317 307 221 197 197 196 196 209 194 189 180 192 232 281
325 310 315 311 311 305 299 295 291 286 285 279 277 272 270 272 266 267 266 279 289 298 290 284 276 281 291 290 300 310 302 255 264 302 301 263 257 196 216 194 194 233 256
313 316 318 312 309 310 310 307 300 293 287 281 279 269 271 268 267 258 256 274 287 282 284 301 286 285 281 299 313 310 288 300 259 232 222 218 221 259 236 234 210 218 232
319 323 320 321 312 313 308 307 300 296 290 285 279 275 267 265 256 254 252 247 264 283 296 293 299 288 306 302 304 323 323 284 170 190 163 179 258 326 298 285 268 256 251
329 327 325 319 318 313 309 306 299 295 292 286 279 276 272 265 254 249 250 248 249 262 279 287 288 295 302 292 333 352 348 29 59 116 142 126 112 119 122 103 115 148 167
328 324 322 321 319 317 316 311 306 301 297 295 289 279 278 272 256 252 251 246 253 250 263 279 274 292 289 300 315 19 346 13 57 80 90 99 103 96 85 83 76 89 102
316 319 328 327 328 329 324 321 317 311 307 314 311 307 287 268 253 248 247 252 254 254 262 278 279 278 291 253 283 53 17 38 56 65 81 78 71 68 67 58 57 85 86
308 323 331 332 335 339 337 333 325 332 335 329 330 329 321 279 260 245 244 252 256 261 253 251 260 237 250 175 74 39 46 59 51 60 62 72 75 76 72 69 59 41 66
301 325 322 329 339 342 347 343 340 346 347 350 345 347 344 341 263 244 239 248 261 272 276 278 268 248 254 157 121 150 59 59 58 14 54 64 68 72 77 82 87 89 85
311 306 312 333 340 354 350 348 348 345 348 352 356 356 2 16 13 327 209 239 255 274 292 302 295 263 155 154 191 167 89 82 75 66 47 37 60 54 51 69 85 85 84
329 328 317 327 331 346 347 353 357 351 351 357 360 358 354 12 18 27 40 47 24 322 304 297 293 336 90 167 126 134 124 153 163 161 104 104 87 92 80 77 108 106 102
323 328 340 341 336 333 351 355 352 342 342 348 357 4 2 2 4 16 17 27 26 20 18 355 18 1 360 345 106 129 129 117 129 116 104 86 57 90 101 114 127 113 107
334 333 352 353 337 339 352 351 348 336 348 345 347 348 359 356 1 6 14 17 21 20 20 30 36 21 15 4 34 71 102 80 68 75 51 111 92 87 110 81 155 147 150
347 355 344 359 356 342 351 351 352 343 345 352 353 2 12 7 355 6 12 357 7 10 354 360 22 34 26 22 27 66 58 75 72 42 18 68 158 92 55 51 33 180 177
344 350 7 1 353 338 344 351 356 334 354 356 359 5 11 9 15 19 25 18 19 350 351 358 7 4 24 25 26 45 56 69 72 86 357 55 132 126 81 30 52 72 95